• în România
  • Lista ţărilor
  • Pe 7 zile
  • Temperatura apei
  • Hartă satelitară
  • Meteo pe hartă
  • Widget-uri
  • user-avatar
    Intrare

    Meteo pe oră la Nesebyr

    Astăzi, 18 Octombrie, Miercuri

    Timp Temperatura Precipitaţii Vânt Presiune Umiditate
    00:00 +17°C° 0 mm 0 m/s 766 mmHg 54%
    01:00 +16°C° 0 mm 0 m/s 766 mmHg 54%
    02:00 +16°C° 0 mm 0 m/s 766 mmHg 57%
    03:00 +16°C° 0 mm 0 m/s 766 mmHg 57%
    04:00 +15°C° 0 mm 0 m/s 765 mmHg 58%
    05:00 +15°C° 0 mm 0 m/s 765 mmHg 59%
    06:00 +16°C° 0 mm 0 m/s 765 mmHg 56%
    07:00 +17°C° 0 mm 0 m/s 765 mmHg 54%
    08:00 +18°C° 0 mm 0 m/s 765 mmHg 48%
    09:00 +22°C° 0 mm 1 m/s 765 mmHg 43%
    10:00 +24°C° 0 mm 1 m/s 765 mmHg 37%
    11:00 +26°C° 0 mm 1 m/s 765 mmHg 31%
    12:00 +27°C° 0 mm 1 m/s 764 mmHg 30%
    13:00 +27°C° 0 mm 2 m/s 764 mmHg 28%
    14:00 +28°C° 0 mm 2 m/s 764 mmHg 27%
    15:00 +26°C° 0 mm 2 m/s 763 mmHg 32%
    16:00 +25°C° 0 mm 2 m/s 763 mmHg 37%
    17:00 +23°C° 0 mm 2 m/s 763 mmHg 42%
    18:00 +21°C° 0 mm 2 m/s 763 mmHg 46%
    19:00 +19°C° 0 mm 2 m/s 763 mmHg 50%
    20:00 +19°C° 0 mm 1 m/s 763 mmHg 53%
    21:00 +19°C° 0 mm 1 m/s 763 mmHg 54%
    22:00 +18°C° 0 mm 1 m/s 763 mmHg 54%
    23:00 +18°C° 0 mm 1 m/s 763 mmHg 54%

    Mâine, 19 Octombrie, Joi

    Timp Temperatura Precipitaţii Vânt Presiune Umiditate
    00:00 +16°C° 0 mm 1 m/s 762 mmHg 55%
    01:00 +16°C° 0 mm 1 m/s 762 mmHg 55%
    02:00 +15°C° 0 mm 0 m/s 762 mmHg 55%
    03:00 +15°C° 0 mm 0 m/s 762 mmHg 55%
    04:00 +14°C° 0 mm 0 m/s 762 mmHg 55%
    05:00 +14°C° 0 mm 0 m/s 761 mmHg 55%
    06:00 +15°C° 0 mm 0 m/s 762 mmHg 53%
    07:00 +16°C° 0 mm 0 m/s 762 mmHg 51%
    08:00 +17°C° 0 mm 0 m/s 762 mmHg 49%
    09:00 +21°C° 0 mm 1 m/s 762 mmHg 44%
    10:00 +23°C° 0 mm 1 m/s 762 mmHg 38%
    11:00 +26°C° 0 mm 1 m/s 762 mmHg 32%
    12:00 +26°C° 0 mm 1 m/s 761 mmHg 31%
    13:00 +27°C° 0 mm 1 m/s 761 mmHg 29%
    14:00 +28°C° 0 mm 2 m/s 761 mmHg 28%
    15:00 +26°C° 0 mm 2 m/s 761 mmHg 33%
    16:00 +25°C° 0 mm 2 m/s 760 mmHg 38%
    17:00 +23°C° 0 mm 2 m/s 760 mmHg 42%
    18:00 +21°C° 0 mm 2 m/s 761 mmHg 46%
    19:00 +20°C° 0 mm 2 m/s 761 mmHg 50%
    20:00 +20°C° 0 mm 1 m/s 761 mmHg 54%
    21:00 +19°C° 0 mm 1 m/s 761 mmHg 55%
    22:00 +19°C° 0 mm 1 m/s 761 mmHg 56%
    23:00 +19°C° 0 mm 1 m/s 761 mmHg 58%

    Poimâine, 20 Octombrie, Vineri

    Timp Temperatura Precipitaţii Vânt Presiune Umiditate
    00:00 +18°C° 0 mm 1 m/s 761 mmHg 58%
    01:00 +18°C° 0 mm 1 m/s 761 mmHg 59%
    02:00 +18°C° 0 mm 1 m/s 761 mmHg 59%
    03:00 +16°C° 0 mm 1 m/s 761 mmHg 60%
    04:00 +16°C° 0 mm 1 m/s 760 mmHg 60%
    05:00 +16°C° 0 mm 1 m/s 760 mmHg 60%
    06:00 +18°C° 0 mm 1 m/s 761 mmHg 58%
    07:00 +18°C° 0 mm 1 m/s 761 mmHg 56%
    08:00 +19°C° 0 mm 1 m/s 761 mmHg 54%
    09:00 +21°C° 0 mm 1 m/s 761 mmHg 48%
    10:00 +24°C° 0 mm 1 m/s 761 mmHg 41%
    11:00 +26°C° 0 mm 1 m/s 761 mmHg 35%
    12:00 +27°C° 0 mm 1 m/s 761 mmHg 33%
    13:00 +27°C° 0 mm 1 m/s 761 mmHg 31%
    14:00 +28°C° 0 mm 1 m/s 760 mmHg 29%
    15:00 +27°C° 0 mm 1 m/s 760 mmHg 33%
    16:00 +25°C° 0 mm 1 m/s 760 mmHg 37%
    17:00 +24°C° 0 mm 1 m/s 760 mmHg 40%
    18:00 +23°C° 0 mm 1 m/s 760 mmHg 43%
    19:00 +21°C° 0 mm 1 m/s 761 mmHg 46%
    20:00 +20°C° 0 mm 1 m/s 761 mmHg 49%
    21:00 +20°C° 0 mm 1 m/s 761 mmHg 50%
    22:00 +20°C° 0 mm 1 m/s 761 mmHg 51%
    23:00 +19°C° 0 mm 1 m/s 762 mmHg 52%

    21 Octombrie, Sâmbătă

    Timp Temperatura Precipitaţii Vânt Presiune Umiditate
    00:00 +19°C° 0 mm 1 m/s 762 mmHg 53%
    01:00 +19°C° 0 mm 1 m/s 762 mmHg 54%
    02:00 +18°C° 0 mm 1 m/s 762 mmHg 55%
    03:00 +18°C° 0 mm 1 m/s 761 mmHg 56%
    04:00 +18°C° 0 mm 1 m/s 761 mmHg 58%
    05:00 +16°C° 0 mm 1 m/s 761 mmHg 59%
    06:00 +18°C° 0 mm 1 m/s 761 mmHg 58%
    07:00 +18°C° 0 mm 2 m/s 762 mmHg 57%
    08:00 +18°C° 0 mm 2 m/s 762 mmHg 57%
    09:00 +20°C° 0 mm 2 m/s 762 mmHg 52%
    10:00 +23°C° 0 mm 2 m/s 762 mmHg 47%
    11:00 +25°C° 0 mm 2 m/s 762 mmHg 41%
    12:00 +25°C° 0 mm 3 m/s 762 mmHg 40%
    13:00 +26°C° 0 mm 3 m/s 762 mmHg 39%
    14:00 +26°C° 0 mm 3 m/s 761 mmHg 37%
    15:00 +25°C° 0 mm 3 m/s 761 mmHg 43%
    16:00 +22°C° 0 mm 3 m/s 761 mmHg 48%
    17:00 +21°C° 0 mm 3 m/s 762 mmHg 54%
    18:00 +20°C° 0 mm 3 m/s 762 mmHg 62%
    19:00 +18°C° 0 mm 3 m/s 762 mmHg 71%
    20:00 +17°C° 0 mm 3 m/s 762 mmHg 80%
    21:00 +17°C° 0 mm 3 m/s 763 mmHg 84%
    22:00 +16°C° 0 mm 3 m/s 763 mmHg 88%
    23:00 +16°C° 0 mm 3 m/s 763 mmHg 93%

    22 Octombrie, Duminică

    Timp Temperatura Precipitaţii Vânt Presiune Umiditate
    00:00 +16°C° 0 mm 3 m/s 763 mmHg 93%
    01:00 +16°C° 0 mm 3 m/s 763 mmHg 93%
    02:00 +16°C° 0 mm 3 m/s 763 mmHg 94%
    03:00 +16°C° 0 mm 3 m/s 763 mmHg 93%
    04:00 +16°C° 0 mm 3 m/s 763 mmHg 93%
    05:00 +16°C° 0 mm 3 m/s 763 mmHg 92%
    06:00 +16°C° 0 mm 3 m/s 763 mmHg 90%
    07:00 +16°C° 0 mm 3 m/s 763 mmHg 88%
    08:00 +16°C° 0 mm 3 m/s 763 mmHg 86%
    09:00 +18°C° 0 mm 3 m/s 763 mmHg 79%
    10:00 +19°C° 0 mm 3 m/s 763 mmHg 72%
    11:00 +20°C° 0 mm 3 m/s 762 mmHg 64%
    12:00 +21°C° 0 mm 3 m/s 762 mmHg 61%
    13:00 +21°C° 0 mm 3 m/s 761 mmHg 58%
    14:00 +22°C° 0 mm 3 m/s 761 mmHg 54%
    15:00 +21°C° 0 mm 3 m/s 761 mmHg 60%
    16:00 +20°C° 0 mm 3 m/s 761 mmHg 66%
    17:00 +19°C° 0 mm 3 m/s 760 mmHg 72%
    18:00 +18°C° 0 mm 3 m/s 760 mmHg 79%
    19:00 +16°C° 0 mm 3 m/s 761 mmHg 86%
    20:00 +15°C° 0 mm 2 m/s 761 mmHg 93%
    21:00 +15°C° 0 mm 2 m/s 761 mmHg 94%
    22:00 +15°C° 0 mm 2 m/s 760 mmHg 95%
    23:00 +15°C° 0 mm 2 m/s 760 mmHg 97%

    23 Octombrie, Luni

    Timp Temperatura Precipitaţii Vânt Presiune Umiditate
    00:00 +15°C° 0 mm 2 m/s 760 mmHg 96%
    01:00 +15°C° 0 mm 2 m/s 759 mmHg 96%
    02:00 +15°C° 0 mm 2 m/s 759 mmHg 96%
    03:00 +15°C° 0 mm 2 m/s 759 mmHg 96%
    04:00 +15°C° 0 mm 2 m/s 759 mmHg 96%
    05:00 +14°C° 0 mm 2 m/s 759 mmHg 96%
    06:00 +15°C° 0 mm 2 m/s 758 mmHg 93%
    07:00 +15°C° 0 mm 2 m/s 758 mmHg 91%
    08:00 +16°C° 0 mm 3 m/s 758 mmHg 88%
    09:00 +17°C° 0 mm 3 m/s 758 mmHg 81%
    10:00 +18°C° 0 mm 3 m/s 758 mmHg 73%
    11:00 +19°C° 0 mm 4 m/s 758 mmHg 65%
    12:00 +19°C° 0 mm 4 m/s 757 mmHg 64%
    13:00 +20°C° 0 mm 4 m/s 757 mmHg 62%
    14:00 +20°C° 0 mm 4 m/s 757 mmHg 61%
    15:00 +19°C° 0 mm 4 m/s 757 mmHg 66%
    16:00 +18°C° 0 mm 4 m/s 757 mmHg 71%
    17:00 +17°C° 0 mm 4 m/s 757 mmHg 76%
    18:00 +17°C° 0 mm 4 m/s 757 mmHg 80%
    19:00 +15°C° 0 mm 4 m/s 757 mmHg 84%
    20:00 +14°C° 0 mm 4 m/s 757 mmHg 89%
    21:00 +14°C° 0 mm 4 m/s 757 mmHg 89%
    22:00 +14°C° 0 mm 4 m/s 757 mmHg 90%
    23:00 +14°C° 0 mm 4 m/s 757 mmHg 90%
    Arată mai mult